Seward, AK

5:56 PM AKST on February 10, 2016 (GMT -0900)
Seward

Weather History for PAWD - April, 2014

Change the Weather History Date:

Sunday, April 6, 2014

  Actual Average Record
Temperature  
Mean Temperature 38 °F -  
Max Temperature 43 °F 41 °F 60 °F (1963)
Min Temperature 33 °F 29 °F 11 °F (1986)
Degree Days  
Heating Degree Days 27    
Moisture  
Dew Point 33 °F    
Average Humidity 88    
Maximum Humidity 96    
Minimum Humidity 71    
Precipitation  
Precipitation 0.09 in - - ()
Sea Level Pressure  
Sea Level Pressure 29.56 in    
Wind  
Wind Speed 3 mph (SSW)    
Max Wind Speed 10 mph    
Max Gust Speed -    
Visibility 8 miles    
Events Rain , Snow    
Averages and records for this station are not official NWS values.
T = Trace of Precipitation, MM = Missing Value Source: NWS Daily Summary

Daily Weather History Graph

Daily Weather History Graph

Search for Another Location

Airport or City:

Trip Planner

Search our weather history database for the weather conditions in past years. The results will help you decide how hot, cold, wet, or windy it might be!

Date:

Astronomy

Apr. 06, 2014 Rise Set
Actual Time 7:06 AM AKDT 8:54 PM AKDT
Civil Twilight 6:22 AM AKDT 9:39 PM AKDT
Nautical Twilight 5:26 AM AKDT 10:35 PM AKDT
Astronomical Twilight 4:18 AM AKDT 11:45 PM AKDT
Moon 11:26 AM AKDT (4/6) 3:48 AM AKDT (4/6)
Length of Visible Light 15h 16m
Length of Day
13h 47m
Waxing Crescent, 45% of the Moon is Illuminated
Apr 6
Waxing Crescent
Apr 7
First Quarter
Apr 14
Full
Apr 21
Last Quarter
Apr 28
New

Hourly Weather History & Observations

Time (AKDT) Temp. Windchill Dew Point Humidity Pressure Visibility Wind Dir Wind Speed Gust Speed Precip Events Conditions
12:29 AM 37.0 °F - 34.0 °F 89% 29.49 in 10.0 mi Calm Calm - 0.00 in Rain Light Rain
12:46 AM 37.9 °F 32.7 °F 34.0 °F 86% 29.50 in 10.0 mi South 6.9 mph - 0.00 in Rain Light Rain
12:53 AM 37.9 °F 33.5 °F 34.0 °F 86% 29.50 in 10.0 mi South 5.8 mph - 0.00 in Rain Light Rain
1:24 AM 37.9 °F 34.4 °F 34.0 °F 86% 29.51 in 10.0 mi SSE 4.6 mph - 0.00 in   Overcast
1:34 AM 37.9 °F 35.5 °F 34.0 °F 86% 29.51 in 10.0 mi South 3.5 mph - 0.00 in   Overcast
1:41 AM 37.9 °F 33.5 °F 34.0 °F 86% 29.51 in 10.0 mi SSE 5.8 mph - 0.00 in   Overcast
1:53 AM 37.0 °F 34.5 °F 34.0 °F 89% 29.52 in 10.0 mi Variable 3.5 mph - 0.00 in   Overcast
2:53 AM 35.1 °F 32.2 °F 33.1 °F 92% 29.52 in 10.0 mi North 3.5 mph - 0.00 in Rain Light Rain
3:01 AM 35.1 °F 31.0 °F 33.1 °F 92% 29.52 in 10.0 mi North 4.6 mph - 0.00 in   Overcast
3:24 AM 35.1 °F - 33.1 °F 92% 29.53 in 10.0 mi Calm Calm - 0.00 in   Overcast
3:53 AM 35.1 °F - 33.1 °F 92% 29.54 in 10.0 mi Calm Calm - 0.00 in Rain Light Rain
4:53 AM 36.0 °F - 34.0 °F 93% 29.55 in 10.0 mi Calm Calm - 0.00 in Rain Light Rain
5:01 AM 36.0 °F 32.1 °F 34.0 °F 93% 29.55 in 8.0 mi Variable 4.6 mph - 0.00 in Rain Light Rain
5:16 AM 37.0 °F 33.3 °F 34.0 °F 89% 29.55 in 10.0 mi SSE 4.6 mph - 0.00 in Rain Light Rain
5:53 AM 36.0 °F - 34.0 °F 93% 29.55 in 10.0 mi Calm Calm - 0.00 in   Overcast
6:11 AM 35.1 °F - 33.1 °F 92% 29.55 in 10.0 mi Calm Calm - 0.00 in Rain Light Rain
6:49 AM 33.8 °F - 32.0 °F 93% 29.56 in 2.5 mi Calm Calm - 0.03 in Snow Light Snow
6:53 AM 34.0 °F - 32.0 °F 92% 29.57 in 2.0 mi Calm Calm - 0.03 in Snow Light Snow
7:01 AM 34.0 °F - 30.9 °F 89% 29.56 in 1.5 mi Calm Calm - 0.01 in Snow Light Snow
7:11 AM 33.1 °F - 32.0 °F 96% 29.56 in 2.0 mi Calm Calm - 0.02 in Snow Light Snow
7:22 AM 33.1 °F - 32.0 °F 96% 29.57 in 1.5 mi Calm Calm - 0.04 in Snow Light Snow
7:42 AM 33.1 °F - 32.0 °F 96% 29.57 in 2.0 mi Calm Calm - 0.05 in Snow Light Snow
7:53 AM 33.1 °F - 32.0 °F 96% 29.57 in 1.2 mi Calm Calm - 0.05 in Snow Light Snow
7:59 AM 33.1 °F - 32.0 °F 96% 29.57 in 0.8 mi Calm Calm - 0.00 in Snow Light Snow
8:15 AM 33.1 °F - 32.0 °F 96% 29.57 in 1.2 mi Calm Calm - 0.01 in Snow Light Snow
8:24 AM 33.1 °F - 32.0 °F 96% 29.57 in 3.0 mi Calm Calm - 0.01 in Snow Light Snow
8:50 AM 33.8 °F - 32.0 °F 93% 29.57 in 6.0 mi Calm Calm - 0.01 in Snow Light Snow
8:53 AM 34.0 °F - 32.0 °F 92% 29.58 in 7.0 mi Calm Calm - 0.01 in   Overcast
9:04 AM 34.0 °F - 32.0 °F 92% 29.58 in 8.0 mi Calm Calm - 0.00 in   Overcast
9:53 AM 35.1 °F - 33.1 °F 92% 29.59 in 2.5 mi Calm Calm - 0.00 in Snow Light Snow
10:10 AM 34.0 °F - 33.1 °F 96% 29.59 in 2.5 mi Calm Calm - 0.00 in Snow Light Snow
10:28 AM 35.1 °F - 33.1 °F 92% 29.59 in 7.0 mi Calm Calm - 0.00 in Snow Light Snow
10:53 AM 36.0 °F - 34.0 °F 93% 29.60 in 10.0 mi Calm Calm - 0.00 in   Overcast
11:53 AM 37.0 °F - 34.0 °F 89% 29.61 in 10.0 mi Calm Calm - N/A   Overcast
12:32 PM 37.9 °F - 34.0 °F 86% 29.61 in 10.0 mi Calm Calm - N/A   Overcast
12:53 PM 39.0 °F - 35.1 °F 86% 29.61 in 10.0 mi Calm Calm - N/A   Overcast
1:25 PM 41.0 °F 37.1 °F 35.1 °F 79% 29.60 in 10.0 mi South 5.8 mph - N/A   Overcast
1:53 PM 41.0 °F 37.1 °F 35.1 °F 79% 29.60 in 10.0 mi South 5.8 mph - N/A   Mostly Cloudy
2:06 PM 41.0 °F 37.1 °F 35.1 °F 79% 29.60 in 10.0 mi South 5.8 mph - N/A   Scattered Clouds
2:53 PM 42.1 °F 38.4 °F 35.1 °F 76% 29.60 in 10.0 mi SSW 5.8 mph - N/A   Mostly Cloudy
3:53 PM 43.0 °F 37.2 °F 34.0 °F 71% 29.59 in 10.0 mi SSW 10.4 mph - N/A   Overcast
4:53 PM 42.1 °F 37.1 °F 35.1 °F 76% 29.58 in 10.0 mi South 8.1 mph - N/A   Overcast
5:53 PM 43.0 °F 38.2 °F 35.1 °F 74% 29.57 in 10.0 mi SSW 8.1 mph - N/A   Overcast
6:53 PM 42.1 °F 36.6 °F 34.0 °F 73% 29.57 in 10.0 mi South 9.2 mph - N/A   Overcast
7:53 PM 41.0 °F 36.4 °F 34.0 °F 76% 29.56 in 10.0 mi SSW 6.9 mph - N/A   Overcast
8:28 PM 39.9 °F 37.8 °F 33.1 °F 77% 29.56 in 10.0 mi SSE 3.5 mph - N/A   Overcast
8:53 PM 39.9 °F - 34.0 °F 79% 29.56 in 10.0 mi Calm Calm - N/A   Overcast
9:47 PM 37.4 °F - 33.8 °F 87% 29.56 in 10.0 mi Calm Calm - N/A   Overcast
9:53 PM 37.9 °F - 33.1 °F 83% 29.56 in 10.0 mi Calm Calm - N/A   Overcast
10:29 PM 37.0 °F 34.5 °F 33.1 °F 86% 29.55 in 10.0 mi NNW 3.5 mph - N/A   Overcast
10:53 PM 37.0 °F 34.5 °F 33.1 °F 86% 29.55 in 10.0 mi NW 3.5 mph - 0.00 in   Overcast
11:36 PM 36.0 °F 32.1 °F 34.0 °F 93% 29.55 in 10.0 mi NNW 4.6 mph - 0.00 in   Overcast
11:49 PM 35.6 °F 31.7 °F 33.8 °F 93% 29.54 in 10.0 mi NNW 4.6 mph - 0.00 in   Overcast
11:53 PM 36.0 °F 32.1 °F 33.1 °F 89% 29.54 in 10.0 mi North 4.6 mph - 0.00 in   Overcast